[[{"header":{"parameterUnit":"m.s-1","parameterCategory":2,"la1":30.2991,"la2":30.254,"lo1":-89.0895,"lo2":-89.0444,"dy":0.0017,"dx":0.0017,"nx":28,"ny":28,"refTime":"2025-06-09T21:00:00:Z","depth":"0","parameterNumber":2,"parameterNumberName":"U-component_of_CURRENTS"},"data":[0,0,0,0,0,0,0,0,0,0,0,0,0,0,0,0,0,0,0,0,0,0,0,0,0,0,0,0,0,0,0,0,0,0,0,0,0,0,0,0,0,0,0,0,0,0,0,0,0,0,0,0,0,0,0,0,0,0,-0.2822,-0.2822,0,-0.2749,-0.2748,-0.2746,-0.2651,-0.265,-0.2649,-0.2648,-0.2459,-0.2455,-0.2451,0,0,0,0,0,0,0,0,0,0,0,0,0,-0.2757,-0.2759,-0.2822,-0.2822,-0.2822,-0.275,-0.2748,-0.2746,-0.2651,-0.265,-0.2649,-0.2648,-0.246,-0.2455,-0.245,0,0,0,0,0,0,0,0,0,0,0,0,0,-0.2738,-0.276,-0.2822,-0.2771,-0.2767,-0.275,-0.2748,-0.2746,-0.2651,-0.265,-0.2648,-0.2647,-0.2462,-0.2456,-0.245,-0.2437,0,0,-0.243,-0.2428,0,0,0,0,0,0,0,0,-0.274,-0.274,-0.2779,-0.2775,-0.277,-0.2714,-0.2656,-0.2639,-0.2651,-0.2687,-0.2648,-0.2647,-0.254,-0.2527,-0.2507,-0.2428,-0.242,-0.243,-0.2426,-0.2423,-0.2421,0,0,0,0,0,0,0,-0.2741,-0.2742,-0.2786,-0.2779,-0.2773,-0.2711,-0.2707,-0.2652,-0.2613,-0.2684,-0.2678,-0.2683,-0.2535,-0.2513,-0.2502,-0.2417,-0.243,-0.2424,-0.242,-0.2418,-0.2316,-0.2317,0,0,0,0,0,0,-0.2774,-0.2744,-0.2788,-0.2784,-0.276,-0.2714,-0.2709,-0.2727,-0.2616,-0.2601,-0.2684,-0.2679,-0.2525,-0.2509,-0.2494,-0.2468,-0.2423,-0.2417,-0.2414,-0.2315,-0.2316,-0.2317,0,0,0,0,0,0,-0.2773,-0.2779,-0.2791,-0.2767,-0.2765,-0.2718,-0.2738,-0.2727,-0.2708,-0.2619,-0.26,-0.2679,-0.2523,-0.2503,-0.2455,-0.246,-0.2415,-0.2409,-0.2313,-0.2315,-0.2317,-0.2417,0,0,0,0,0,0,-0.2772,-0.2779,-0.279,-0.277,-0.2768,-0.2812,-0.274,-0.2726,-0.2716,-0.2708,-0.2609,-0.2589,-0.2521,-0.2466,-0.2449,-0.245,-0.2404,-0.2312,-0.2314,-0.2316,-0.2413,-0.2422,-0.243,0,0,0,0,0,-0.277,-0.2799,-0.2792,-0.2796,-0.279,-0.2815,-0.2808,-0.2762,-0.2718,-0.2734,-0.2653,-0.2593,-0.2467,-0.2462,-0.2442,-0.2441,-0.2311,-0.2314,-0.2316,-0.2409,-0.242,-0.243,0,0,0,0,0,0,-0.2765,-0.2793,-0.2783,-0.2816,-0.283,-0.2802,-0.2801,-0.2776,-0.2724,-0.27,-0.2604,-0.2581,-0.2546,-0.2486,-0.2483,-0.2421,-0.238,-0.2379,-0.2457,-0.2467,-0.2476,-0.248,-0.2399,0,0,0,0,0,-0.2778,-0.2802,-0.2826,-0.2844,-0.2862,-0.2833,-0.2829,-0.2812,-0.2772,-0.2748,-0.2681,-0.2602,-0.2542,-0.25,-0.2449,-0.2409,-0.2348,-0.2398,-0.2407,-0.2415,-0.2408,-0.2329,-0.233,-0.2325,-0.2325,-0.2325,0,0,-0.2768,-0.2792,-0.2798,-0.2845,-0.2839,-0.2858,-0.2826,-0.2841,-0.2826,-0.2734,-0.2685,-0.2639,-0.2544,-0.2504,-0.2481,-0.245,-0.239,-0.2418,-0.2425,-0.2413,-0.2332,-0.2332,-0.2332,-0.2327,-0.2327,-0.2326,0,0,-0.2769,-0.2803,-0.2823,-0.2853,-0.2883,-0.2879,-0.2895,-0.2892,-0.2865,-0.2835,-0.2761,-0.2719,-0.2628,-0.2562,-0.2511,-0.2538,-0.2452,-0.2531,-0.2558,-0.2483,-0.2482,-0.248,-0.2425,-0.2417,-0.252,-0.252,-0.252,0,-0.2744,-0.2782,-0.2831,-0.2866,-0.2872,-0.2895,-0.2906,-0.2901,-0.2872,-0.2843,-0.2833,-0.2703,-0.2645,-0.2561,-0.2582,-0.2554,-0.2508,-0.2524,-0.2493,-0.249,-0.2486,-0.2429,-0.2419,-0.2525,-0.2524,-0.2524,-0.2523,0,-0.2761,-0.2791,-0.2812,-0.2856,-0.2886,-0.2905,-0.293,-0.294,-0.2914,-0.2886,-0.2831,-0.2765,-0.2676,-0.2671,-0.2631,-0.2582,-0.2559,-0.2526,-0.2465,-0.2493,-0.2431,-0.2419,-0.2532,-0.253,-0.2529,-0.2528,0,0,-0.265,-0.2791,-0.2785,-0.2807,-0.2876,-0.2896,-0.2912,-0.2912,-0.2882,-0.2878,-0.281,-0.2762,-0.2738,-0.2683,-0.2638,-0.2592,-0.2554,-0.2564,-0.2557,-0.2507,-0.2403,-0.2216,-0.2185,-0.2518,-0.2516,-0.2514,-0.2378,0,-0.2613,-0.2682,-0.2758,-0.2783,-0.2806,-0.2865,-0.287,-0.2882,-0.2867,-0.2825,-0.278,-0.2711,-0.2735,-0.2689,-0.2657,-0.2571,-0.2524,-0.2595,-0.2384,-0.2378,-0.2205,-0.2164,-0.1974,-0.182,-0.2365,-0.2363,-0.2362,0,-0.2535,-0.2614,-0.2648,-0.2736,-0.2751,-0.2773,-0.2777,-0.2797,-0.2782,-0.2767,-0.273,-0.2686,-0.263,-0.2637,-0.2521,-0.2567,-0.2501,-0.2446,-0.2438,-0.2212,-0.2165,-0.1875,-0.1777,-0.1885,-0.2343,-0.2344,-0.2345,0,-0.2361,-0.2488,-0.2513,-0.2546,-0.2675,-0.2684,-0.2736,-0.2753,-0.2712,-0.2721,-0.2635,-0.2631,-0.2509,-0.2503,-0.2396,-0.2462,-0.2237,-0.2296,-0.2067,-0.2054,-0.1819,-0.1786,-0.1786,-0.2196,-0.2197,-0.2197,-0.2197,0,-0.2227,-0.2227,-0.2446,-0.2454,-0.2459,-0.26,-0.257,-0.2614,-0.261,-0.2478,-0.2578,-0.2384,-0.2458,-0.2324,-0.2349,-0.2129,-0.2184,-0.2045,-0.1985,-0.185,-0.1824,-0.1845,-0.1922,-0.2192,-0.2193,-0.2194,-0.2195,0,-0.1945,-0.2108,-0.213,-0.2313,-0.2362,-0.235,-0.2436,-0.239,-0.2443,-0.2258,-0.2231,-0.2143,-0.1965,-0.2009,-0.1914,-0.1937,-0.1802,-0.1754,-0.1601,-0.1524,-0.1453,-0.1539,-0.1382,-0.1342,-0.1525,-0.1519,-0.1514,0,-0.1785,-0.1784,-0.1967,-0.198,-0.2046,-0.2106,-0.2105,-0.2251,-0.2171,-0.2015,-0.184,-0.166,-0.1392,-0.125,-0.1299,-0.1301,-0.1446,-0.1171,-0.1259,-0.1386,-0.1442,-0.1536,-0.1526,-0.1016,-0.1007,-0.1,-0.0995,0,-0.1452,-0.1525,-0.1564,-0.1615,-0.1643,-0.1688,-0.1703,-0.1633,-0.1696,-0.1569,-0.1263,-0.1055,-0.0816,-0.0615,-0.0639,-0.0716,-0.1159,-0.1021,-0.1178,-0.1041,-0.1113,-0.1065,-0.1219,-0.0932,-0.0938,-0.0943,-0.0946,-0.0949,-0.115,-0.1089,-0.1163,-0.1183,-0.1222,-0.1205,-0.1135,-0.1139,-0.1016,-0.0765,-0.0736,-0.0383,-0.0125,-0.0068,-0.0249,-0.0471,-0.0579,-0.0562,-0.0659,-0.0751,-0.0689,-0.0702,-0.0328,-0.0331,-0.0333,-0.0335,-0.0337,0,-0.0807,-0.0774,-0.0735,-0.0754,-0.0685,-0.0847,-0.0789,-0.0678,-0.0463,-0.0322,-0.0121,0.0265,0.0462,0.0376,0.0205,-0.0068,-0.0289,-0.028,-0.044,-0.045,-0.0458,-0.0416,-0.0009,-0.0009,-0.0009,-0.0009,-0.0009,-0.0009,-0.062,-0.0472,-0.0478,-0.0259,-0.0261,-0.0146,-0.0092,0.0037,0.0146,0.0437,0.0625,0.0739,0.0818,0.0559,0.0144,-0.0055,-0.0306,-0.027,-0.046,-0.0579,-0.0618,-0.0656,-0.0641,-0.0288,-0.0288,-0.0378,-0.0379,-0.038]},{"header":{"parameterUnit":"m.s-1","parameterCategory":2,"la1":30.2991,"la2":30.254,"lo1":-89.0895,"lo2":-89.0444,"dy":0.0017,"dx":0.0017,"nx":28,"ny":28,"refTime":"2025-06-09T21:00:00:Z","depth":"0","parameterNumber":3,"parameterNumberName":"V-component_of_CURRENTS"},"data":[0,0,0,0,0,0,0,0,0,0,0,0,0,0,0,0,0,0,0,0,0,0,0,0,0,0,0,0,0,0,0,0,0,0,0,0,0,0,0,0,0,0,0,0,0,0,0,0,0,0,0,0,0,0,0,0,0,0,-0.0783,-0.0783,0,-0.0749,-0.0749,-0.0748,-0.0693,-0.0692,-0.0691,-0.0691,-0.0618,-0.0617,-0.0616,0,0,0,0,0,0,0,0,0,0,0,0,0,-0.0721,-0.0723,-0.0784,-0.0783,-0.0783,-0.0749,-0.0749,-0.0748,-0.0694,-0.0692,-0.0691,-0.069,-0.0619,-0.0617,-0.0616,0,0,0,0,0,0,0,0,0,0,0,0,0,-0.0723,-0.0723,-0.0784,-0.0752,-0.0749,-0.0749,-0.0749,-0.0748,-0.0694,-0.0692,-0.0691,-0.069,-0.0619,-0.0618,-0.0616,-0.0635,0,0,-0.0611,-0.0611,0,0,0,0,0,0,0,0,-0.0723,-0.0725,-0.0757,-0.0754,-0.075,-0.0724,-0.07,-0.0708,-0.0694,-0.0714,-0.0691,-0.0689,-0.0652,-0.0647,-0.0644,-0.0632,-0.0629,-0.0611,-0.061,-0.061,-0.0609,0,0,0,0,0,0,0,-0.0723,-0.0726,-0.0769,-0.0757,-0.0753,-0.0711,-0.0711,-0.0701,-0.069,-0.0712,-0.0708,-0.0706,-0.0649,-0.0646,-0.0642,-0.0628,-0.0611,-0.061,-0.0609,-0.0608,-0.0526,-0.0525,0,0,0,0,0,0,-0.0735,-0.0727,-0.077,-0.0768,-0.0733,-0.0714,-0.0713,-0.0734,-0.0691,-0.0684,-0.0707,-0.0703,-0.0649,-0.0644,-0.0639,-0.0606,-0.061,-0.0608,-0.0607,-0.0527,-0.0526,-0.0525,0,0,0,0,0,0,-0.0734,-0.074,-0.0772,-0.0745,-0.0746,-0.0717,-0.074,-0.0734,-0.0725,-0.0688,-0.0679,-0.0704,-0.0648,-0.0641,-0.062,-0.0605,-0.0607,-0.0606,-0.0529,-0.0527,-0.0525,-0.0574,0,0,0,0,0,0,-0.0733,-0.0741,-0.0761,-0.0747,-0.0748,-0.0771,-0.0741,-0.0734,-0.0726,-0.0721,-0.0683,-0.0675,-0.0646,-0.0623,-0.0619,-0.0602,-0.0605,-0.053,-0.0528,-0.0526,-0.0574,-0.0574,-0.0574,0,0,0,0,0,-0.0731,-0.0779,-0.0762,-0.0767,-0.0778,-0.0771,-0.0768,-0.0741,-0.0728,-0.0727,-0.0696,-0.0676,-0.0603,-0.0622,-0.0617,-0.06,-0.0532,-0.0529,-0.0526,-0.0574,-0.0574,-0.0574,0,0,0,0,0,0,-0.0776,-0.0777,-0.0759,-0.0808,-0.0784,-0.0762,-0.0771,-0.0748,-0.0726,-0.0723,-0.0681,-0.0671,-0.0637,-0.0614,-0.0636,-0.0563,-0.0556,-0.0552,-0.0593,-0.0593,-0.0593,-0.0614,-0.0604,0,0,0,0,0,-0.0792,-0.0822,-0.08,-0.0836,-0.0829,-0.0798,-0.0793,-0.0772,-0.0751,-0.074,-0.0707,-0.0666,-0.0624,-0.0608,-0.0571,-0.0556,-0.0498,-0.0531,-0.0531,-0.0532,-0.0541,-0.042,-0.0411,-0.0515,-0.0515,-0.0515,0,0,-0.0822,-0.0825,-0.0843,-0.0845,-0.0829,-0.0839,-0.0792,-0.0793,-0.0789,-0.0737,-0.0726,-0.0672,-0.0618,-0.0583,-0.0565,-0.0565,-0.0471,-0.0528,-0.053,-0.0539,-0.0416,-0.0406,-0.0397,-0.0513,-0.0514,-0.0514,0,0,-0.0902,-0.0895,-0.0942,-0.0925,-0.0905,-0.0876,-0.0877,-0.0847,-0.0817,-0.0801,-0.0743,-0.0683,-0.0647,-0.0586,-0.0555,-0.0537,-0.0473,-0.0516,-0.0542,-0.0424,-0.0415,-0.0406,-0.0326,-0.0309,-0.0519,-0.0519,-0.0519,0,-0.0934,-0.0995,-0.0951,-0.0982,-0.0975,-0.0899,-0.0929,-0.0892,-0.0854,-0.0812,-0.0803,-0.0678,-0.0644,-0.0563,-0.056,-0.0538,-0.0472,-0.0553,-0.0425,-0.0415,-0.0405,-0.0325,-0.0306,-0.0521,-0.0521,-0.0521,-0.0521,0,-0.1042,-0.1078,-0.1103,-0.111,-0.1086,-0.1103,-0.1033,-0.0993,-0.0942,-0.0885,-0.0788,-0.0718,-0.0631,-0.0605,-0.0594,-0.0494,-0.047,-0.0438,-0.0432,-0.0398,-0.0315,-0.0295,-0.0524,-0.0523,-0.0523,-0.0522,0,0,-0.113,-0.1177,-0.1181,-0.119,-0.1154,-0.1139,-0.1108,-0.1038,-0.0965,-0.0911,-0.0812,-0.0751,-0.0669,-0.0628,-0.0563,-0.0484,-0.0373,-0.045,-0.0442,-0.0384,-0.0129,-0.0081,-0.0054,-0.0312,-0.0308,-0.0305,-0.0103,0,-0.1222,-0.1327,-0.1303,-0.1343,-0.1371,-0.1268,-0.1222,-0.1129,-0.1018,-0.0893,-0.0782,-0.0667,-0.0685,-0.0608,-0.054,-0.0391,-0.032,-0.0433,-0.016,-0.0152,-0.0123,-0.0028,0.0095,0.0289,-0.0083,-0.0079,-0.0077,0,-0.1312,-0.1371,-0.1466,-0.1427,-0.1419,-0.1416,-0.1266,-0.121,-0.1009,-0.0901,-0.0768,-0.0648,-0.0521,-0.0522,-0.0306,-0.0372,-0.0275,-0.018,-0.0168,-0.0095,-0.0065,0.0199,0.034,0.0389,-0.0045,-0.0048,-0.005,0,-0.1376,-0.1447,-0.1527,-0.1531,-0.1493,-0.1472,-0.1413,-0.1227,-0.1087,-0.0885,-0.0725,-0.0586,-0.0426,-0.0324,-0.0165,-0.0212,0.0093,0.007,0.0197,0.0201,0.0372,0.0385,0.0584,0.0222,0.0221,0.0221,0.022,0,-0.146,-0.1494,-0.1572,-0.1609,-0.1597,-0.1542,-0.1425,-0.1314,-0.1079,-0.0866,-0.0734,-0.0514,-0.0357,-0.0161,-0.0105,0.0122,0.0148,0.0215,0.0275,0.0357,0.0366,0.0467,0.0453,0.0228,0.0227,0.0225,0.0224,0,-0.1461,-0.1551,-0.1608,-0.1642,-0.1636,-0.1609,-0.1423,-0.1284,-0.1089,-0.0797,-0.0714,-0.0394,-0.0118,0.0025,0.0269,0.0273,0.0517,0.0495,0.0555,0.0617,0.0735,0.0712,0.0971,0.1076,0.0668,0.0671,0.0673,0,-0.1441,-0.151,-0.1613,-0.1617,-0.1631,-0.1575,-0.1477,-0.1303,-0.1106,-0.0706,-0.0535,-0.019,0.008,0.0428,0.0589,0.0749,0.074,0.0868,0.0785,0.0784,0.0805,0.077,0.0836,0.0997,0.1002,0.1006,0.1009,0,-0.1351,-0.1431,-0.1486,-0.1537,-0.1513,-0.1426,-0.1287,-0.1136,-0.0863,-0.0625,-0.0251,-0.0036,0.039,0.0702,0.0916,0.0978,0.0954,0.095,0.0984,0.1108,0.1058,0.1175,0.0772,0.1044,0.104,0.1038,0.1036,0.1034,-0.1204,-0.1244,-0.1341,-0.1361,-0.1339,-0.1213,-0.1083,-0.0901,-0.0618,-0.0205,-0.0077,0.0259,0.0636,0.1027,0.1116,0.1353,0.1294,0.1359,0.1341,0.1309,0.139,0.1023,0.1328,0.1326,0.1325,0.1323,0.1322,0,-0.0953,-0.1054,-0.1105,-0.1123,-0.1037,-0.1087,-0.0866,-0.0694,-0.0382,-0.0114,0.0177,0.0597,0.0993,0.1271,0.1652,0.1713,0.171,0.1724,0.1719,0.1778,0.152,0.151,0.1828,0.1828,0.1828,0.1828,0.1828,0.1828,-0.0813,-0.0825,-0.0922,-0.0792,-0.0798,-0.0626,-0.0497,-0.0315,-0.0106,0.0294,0.0556,0.0764,0.1157,0.1575,0.191,0.1954,0.2004,0.2024,0.2018,0.1814,0.1777,0.1742,0.173,0.209,0.209,0.2342,0.2344,0.2346]}],[{"header":{"parameterUnit":"m.s-1","parameterCategory":2,"la1":30.2991,"la2":30.254,"lo1":-89.0895,"lo2":-89.0444,"dy":0.0017,"dx":0.0017,"nx":28,"ny":28,"refTime":"2025-06-09T21:00:00:Z","depth":"2","parameterNumber":2,"parameterNumberName":"U-component_of_CURRENTS"},"data":[0,0,0,0,0,0,0,0,0,0,0,0,0,0,0,0,0,0,0,0,0,0,0,0,0,0,0,0,0,0,0,0,0,0,0,0,0,0,0,0,0,0,0,0,0,0,0,0,0,0,0,0,0,0,0,0,0,0,-0.2137,-0.2137,0,-0.2203,-0.2204,-0.2205,-0.2232,-0.2232,-0.2231,-0.2231,-0.2354,-0.2357,-0.2361,0,0,0,0,0,0,0,0,0,0,0,0,0,-0.2087,-0.2088,-0.2137,-0.2138,-0.2138,-0.2203,-0.2204,-0.2205,-0.2232,-0.2232,-0.2231,-0.2231,-0.2353,-0.2357,-0.2361,0,0,0,0,0,0,0,0,0,0,0,0,0,-0.2128,-0.2088,-0.2137,-0.2158,-0.216,-0.2202,-0.2204,-0.2205,-0.2232,-0.2232,-0.2231,-0.2231,-0.2351,-0.2357,-0.2362,-0.2405,0,0,-0.2378,-0.2381,0,0,0,0,0,0,0,0,-0.2126,-0.213,-0.2154,-0.2157,-0.2159,-0.2207,-0.2231,-0.2274,-0.2232,-0.2207,-0.2231,-0.223,-0.2309,-0.2318,-0.2333,-0.241,-0.2416,-0.2379,-0.2382,-0.2384,-0.2386,0,0,0,0,0,0,0,-0.2123,-0.2128,-0.2165,-0.2155,-0.2158,-0.2182,-0.2187,-0.224,-0.2263,-0.2209,-0.2211,-0.2215,-0.2311,-0.2328,-0.2337,-0.2417,-0.2379,-0.2383,-0.2387,-0.2389,-0.2433,-0.2431,0,0,0,0,0,0,-0.2109,-0.2125,-0.2163,-0.2167,-0.2139,-0.2183,-0.2189,-0.2194,-0.2261,-0.227,-0.2215,-0.2216,-0.2319,-0.233,-0.2341,-0.2361,-0.2384,-0.2389,-0.2392,-0.2435,-0.2433,-0.2431,0,0,0,0,0,0,-0.2107,-0.2111,-0.216,-0.2146,-0.2153,-0.2184,-0.219,-0.2195,-0.2219,-0.2265,-0.2275,-0.2233,-0.2319,-0.2334,-0.2359,-0.2367,-0.2392,-0.2397,-0.2438,-0.2434,-0.2432,-0.2423,0,0,0,0,0,0,-0.2106,-0.2111,-0.2114,-0.2145,-0.2154,-0.2182,-0.219,-0.2197,-0.2221,-0.2223,-0.2284,-0.2294,-0.232,-0.2351,-0.2365,-0.2375,-0.2401,-0.244,-0.2436,-0.2433,-0.2426,-0.242,-0.2415,0,0,0,0,0,-0.2104,-0.2108,-0.2114,-0.2118,-0.2155,-0.2182,-0.2189,-0.221,-0.2222,-0.2231,-0.225,-0.2292,-0.2335,-0.2354,-0.2371,-0.2383,-0.2442,-0.2437,-0.2433,-0.2428,-0.2421,-0.2415,0,0,0,0,0,0,-0.2091,-0.2112,-0.2119,-0.213,-0.2151,-0.2185,-0.2197,-0.2217,-0.2242,-0.2245,-0.2286,-0.2297,-0.2311,-0.234,-0.2359,-0.2373,-0.2389,-0.2388,-0.238,-0.2374,-0.2368,-0.2385,-0.2405,0,0,0,0,0,-0.2088,-0.2094,-0.212,-0.2129,-0.2139,-0.2172,-0.2188,-0.2203,-0.2227,-0.224,-0.2276,-0.2297,-0.2306,-0.2334,-0.2345,-0.2383,-0.2382,-0.2388,-0.2383,-0.2378,-0.2395,-0.2388,-0.2385,-0.2415,-0.2416,-0.2416,0,0,-0.2084,-0.2097,-0.2101,-0.2126,-0.2146,-0.2172,-0.2181,-0.2204,-0.2226,-0.2251,-0.2288,-0.2285,-0.2303,-0.2316,-0.2328,-0.2349,-0.2357,-0.2373,-0.237,-0.2389,-0.2383,-0.2381,-0.2378,-0.2412,-0.2413,-0.2413,0,0,-0.2082,-0.2092,-0.21,-0.2124,-0.2152,-0.2172,-0.218,-0.2215,-0.2228,-0.2254,-0.2255,-0.2251,-0.2299,-0.23,-0.2309,-0.2285,-0.2316,-0.2285,-0.2304,-0.2295,-0.2294,-0.2293,-0.2249,-0.2245,-0.23,-0.23,-0.23,0,-0.2077,-0.2096,-0.2107,-0.2131,-0.2156,-0.2174,-0.2202,-0.2219,-0.2255,-0.227,-0.2258,-0.2277,-0.2288,-0.2303,-0.2277,-0.228,-0.227,-0.2337,-0.2293,-0.2292,-0.2291,-0.2247,-0.2243,-0.2299,-0.23,-0.23,-0.23,0,-0.2086,-0.2112,-0.2121,-0.2156,-0.2182,-0.2206,-0.2233,-0.2254,-0.2266,-0.2283,-0.2287,-0.2275,-0.2293,-0.2277,-0.2277,-0.2275,-0.2264,-0.2276,-0.2322,-0.2289,-0.2242,-0.2238,-0.2298,-0.2298,-0.2299,-0.2299,0,0,-0.2043,-0.2114,-0.2116,-0.2146,-0.2201,-0.2218,-0.2257,-0.2293,-0.2318,-0.2319,-0.2343,-0.2319,-0.2312,-0.2317,-0.2305,-0.2295,-0.2252,-0.2291,-0.2291,-0.2269,-0.2212,-0.2108,-0.2092,-0.2269,-0.2269,-0.2269,-0.2168,0,-0.2047,-0.2096,-0.2134,-0.2185,-0.2216,-0.2261,-0.2296,-0.233,-0.2348,-0.2369,-0.2349,-0.2352,-0.2329,-0.2325,-0.2312,-0.2268,-0.2245,-0.2277,-0.2229,-0.2227,-0.2158,-0.2086,-0.1949,-0.1841,-0.2164,-0.2163,-0.2162,0,-0.2036,-0.2077,-0.2128,-0.221,-0.2226,-0.2258,-0.2319,-0.2353,-0.2392,-0.2405,-0.2414,-0.2405,-0.2382,-0.2359,-0.2292,-0.2317,-0.2267,-0.2226,-0.2222,-0.2135,-0.2115,-0.1931,-0.182,-0.2155,-0.2155,-0.2156,-0.2156,0,-0.1985,-0.2068,-0.2108,-0.2138,-0.2228,-0.2258,-0.23,-0.2358,-0.2382,-0.2423,-0.2439,-0.2427,-0.2409,-0.2357,-0.2271,-0.2289,-0.2182,-0.2198,-0.2053,-0.2044,-0.1924,-0.1904,-0.2151,-0.2151,-0.2152,-0.2152,-0.2152,0,-0.197,-0.1999,-0.2086,-0.2107,-0.2146,-0.2228,-0.2265,-0.2314,-0.2374,-0.242,-0.2444,-0.2459,-0.2412,-0.2355,-0.2277,-0.213,-0.2186,-0.2037,-0.2011,-0.1907,-0.1889,-0.2174,-0.2178,-0.2148,-0.2149,-0.215,-0.215,0,-0.19,-0.1965,-0.2004,-0.2096,-0.212,-0.2139,-0.2225,-0.2246,-0.2336,-0.2396,-0.241,-0.2458,-0.2385,-0.2299,-0.2199,-0.2121,-0.2,-0.1941,-0.1798,-0.1757,-0.1866,-0.1871,-0.1765,-0.1761,-0.1757,-0.1754,-0.1751,0,-0.187,-0.1884,-0.1957,-0.1967,-0.2004,-0.2052,-0.2076,-0.2187,-0.2221,-0.2399,-0.2404,-0.2399,-0.2368,-0.2152,-0.1979,-0.1782,-0.1877,-0.1577,-0.1584,-0.184,-0.1827,-0.1837,-0.1847,-0.1402,-0.1396,-0.1392,-0.1389,0,-0.1794,-0.1812,-0.1832,-0.1859,-0.1881,-0.1917,-0.1977,-0.1997,-0.2164,-0.221,-0.2287,-0.2296,-0.2171,-0.1918,-0.1691,-0.1559,-0.1592,-0.1481,-0.1783,-0.1525,-0.149,-0.148,-0.1502,-0.135,-0.1354,-0.1357,-0.1359,-0.136,-0.171,-0.1692,-0.1715,-0.1722,-0.1766,-0.1786,-0.177,-0.1822,-0.185,-0.1905,-0.2051,-0.1959,-0.1969,-0.1481,-0.1351,-0.1181,-0.1305,-0.1235,-0.1252,-0.1273,-0.1253,-0.1214,-0.1015,-0.1017,-0.1019,-0.102,-0.1022,0,-0.1607,-0.1592,-0.1585,-0.161,-0.16,-0.169,-0.1706,-0.1632,-0.1596,-0.1619,-0.1618,-0.1397,-0.1236,-0.1191,-0.0907,-0.0857,-0.0854,-0.0787,-0.0838,-0.0876,-0.091,-0.0877,-0.0537,-0.0535,-0.0534,-0.0532,0,0,-0.1552,-0.1495,-0.148,-0.1429,-0.1475,-0.1447,-0.143,-0.1297,-0.1226,-0.109,-0.1002,-0.1057,-0.1144,-0.0832,-0.079,-0.0645,-0.0735,-0.0558,-0.0949,-0.1048,-0.1081,-0.1167,-0.1156,0,0,0,0,0]},{"header":{"parameterUnit":"m.s-1","parameterCategory":2,"la1":30.2991,"la2":30.254,"lo1":-89.0895,"lo2":-89.0444,"dy":0.0017,"dx":0.0017,"nx":28,"ny":28,"refTime":"2025-06-09T21:00:00:Z","depth":"2","parameterNumber":3,"parameterNumberName":"V-component_of_CURRENTS"},"data":[0,0,0,0,0,0,0,0,0,0,0,0,0,0,0,0,0,0,0,0,0,0,0,0,0,0,0,0,0,0,0,0,0,0,0,0,0,0,0,0,0,0,0,0,0,0,0,0,0,0,0,0,0,0,0,0,0,0,-0.0401,-0.04,0,-0.0313,-0.0312,-0.0311,-0.0269,-0.0269,-0.0269,-0.0269,-0.0108,-0.0104,-0.01,0,0,0,0,0,0,0,0,0,0,0,0,0,-0.0488,-0.0487,-0.0401,-0.04,-0.0399,-0.0313,-0.0312,-0.0311,-0.0269,-0.0269,-0.0269,-0.0269,-0.0109,-0.0104,-0.0099,0,0,0,0,0,0,0,0,0,0,0,0,0,-0.043,-0.0486,-0.0401,-0.0368,-0.0364,-0.0313,-0.0312,-0.031,-0.0269,-0.0269,-0.0269,-0.0269,-0.0111,-0.0105,-0.0099,-0.0058,0,0,-0.0079,-0.0076,0,0,0,0,0,0,0,0,-0.0434,-0.0427,-0.0374,-0.037,-0.0365,-0.0302,-0.0284,-0.0222,-0.0269,-0.0305,-0.0269,-0.0269,-0.0166,-0.0155,-0.014,-0.005,-0.0043,-0.0078,-0.0074,-0.0071,-0.007,0,0,0,0,0,0,0,-0.0438,-0.043,-0.0366,-0.0372,-0.0367,-0.0341,-0.0334,-0.0272,-0.0235,-0.0302,-0.0299,-0.0289,-0.0163,-0.0146,-0.0135,-0.0041,-0.0078,-0.0073,-0.0069,-0.0066,0.0084,0.0084,0,0,0,0,0,0,-0.0451,-0.0434,-0.0369,-0.0364,-0.04,-0.034,-0.0331,-0.0322,-0.0237,-0.0225,-0.0289,-0.0287,-0.0157,-0.0143,-0.0129,-0.0077,-0.0072,-0.0065,-0.0062,0.0084,0.0084,0.0084,0,0,0,0,0,0,-0.0453,-0.0446,-0.0373,-0.0397,-0.0386,-0.0339,-0.0329,-0.0321,-0.0303,-0.0228,-0.0214,-0.028,-0.0157,-0.0138,-0.0084,-0.007,-0.0063,-0.0057,0.0084,0.0084,0.0084,0.003,0,0,0,0,0,0,-0.0456,-0.0447,-0.0447,-0.0398,-0.0385,-0.0348,-0.0328,-0.0319,-0.0297,-0.0294,-0.0215,-0.0201,-0.0155,-0.0094,-0.0078,-0.0061,-0.0052,0.0084,0.0084,0.0084,0.0031,0.0028,0.0025,0,0,0,0,0,-0.0459,-0.0457,-0.0447,-0.0439,-0.0385,-0.0348,-0.0339,-0.0306,-0.0297,-0.029,-0.0243,-0.0203,-0.0081,-0.0089,-0.0069,-0.0051,0.0084,0.0084,0.0084,0.0033,0.0029,0.0025,0,0,0,0,0,0,-0.0496,-0.0452,-0.0439,-0.0425,-0.0393,-0.0341,-0.0332,-0.0309,-0.0267,-0.0265,-0.0198,-0.018,-0.0131,-0.0084,-0.0095,-0.0009,0.0008,0.0012,-0.0038,-0.0041,-0.0045,-0.005,-0.0046,0,0,0,0,0,-0.0504,-0.0493,-0.0447,-0.0438,-0.0423,-0.0379,-0.0361,-0.0338,-0.0294,-0.0277,-0.0222,-0.0164,-0.0114,-0.0075,-0.0026,0.003,0.0068,0.0053,0.005,0.0047,0.0055,0.0103,0.0104,0.0085,0.0085,0.0085,0,0,-0.0517,-0.0491,-0.0485,-0.0445,-0.0418,-0.0396,-0.0368,-0.0344,-0.0321,-0.0263,-0.0217,-0.0175,-0.0105,-0.0054,-0.0026,-0.0011,0.0072,0.0047,0.0044,0.0054,0.0103,0.0105,0.0107,0.0085,0.0085,0.0085,0,0,-0.0535,-0.0514,-0.0509,-0.0484,-0.0446,-0.0414,-0.041,-0.0358,-0.0332,-0.0286,-0.0245,-0.0197,-0.0111,-0.006,-0.0023,-0.001,0.0044,0.0005,0.0002,0.0047,0.0049,0.0052,0.01,0.0107,0.0015,0.0015,0.0015,0,-0.0553,-0.0542,-0.0502,-0.049,-0.0475,-0.0425,-0.0418,-0.0377,-0.0315,-0.029,-0.0279,-0.0168,-0.0111,-0.0043,-0.004,-0.0014,0.0017,0.0009,0.0043,0.0046,0.0049,0.0098,0.0106,0.0012,0.0012,0.0013,0.0013,0,-0.0561,-0.0556,-0.0552,-0.0519,-0.0494,-0.0484,-0.0426,-0.0395,-0.0359,-0.0316,-0.0254,-0.0184,-0.0118,-0.0092,-0.0056,-0.0002,0.0014,0.0021,0.0049,0.0047,0.0099,0.0109,0.0008,0.0009,0.001,0.0011,0,0,-0.0595,-0.0567,-0.0567,-0.057,-0.0515,-0.0501,-0.0456,-0.0405,-0.0381,-0.0312,-0.0272,-0.0184,-0.0152,-0.0109,-0.0059,-0.0006,0.0044,0.0017,0.0021,0.006,0.0146,0.0167,0.018,0.0051,0.0053,0.0054,0.0171,0,-0.0619,-0.0624,-0.059,-0.0593,-0.0594,-0.0537,-0.0503,-0.0446,-0.039,-0.0335,-0.025,-0.0197,-0.0155,-0.0131,-0.0072,0.0016,0.0067,0.0012,0.0147,0.0152,0.0166,0.0191,0.0169,0.0273,0.0181,0.0183,0.0184,0,-0.0637,-0.0643,-0.0657,-0.0647,-0.0641,-0.0628,-0.0578,-0.054,-0.0441,-0.0396,-0.032,-0.0252,-0.015,-0.0131,0.0026,-0.0014,0.006,0.0126,0.0132,0.0181,0.0191,0.0262,0.0295,0.0201,0.02,0.0198,0.0197,0,-0.0692,-0.069,-0.0712,-0.0706,-0.0676,-0.0671,-0.0649,-0.0566,-0.0538,-0.0436,-0.0404,-0.0277,-0.0205,-0.01,0.0052,0.0035,0.0222,0.0213,0.0303,0.0306,0.0331,0.0333,0.031,0.0309,0.0309,0.0309,0.0308,0,-0.0732,-0.0749,-0.0748,-0.0762,-0.0788,-0.0739,-0.074,-0.0689,-0.0615,-0.0554,-0.0452,-0.0358,-0.0195,-0.006,0.0051,0.0222,0.0222,0.0317,0.0342,0.0311,0.031,0.0281,0.0276,0.0313,0.0312,0.0311,0.0311,0,-0.0781,-0.0777,-0.0811,-0.0813,-0.0817,-0.0837,-0.0819,-0.0815,-0.073,-0.0646,-0.0614,-0.0414,-0.021,-0.0058,0.0153,0.023,0.0379,0.0431,0.0388,0.0407,0.043,0.042,0.0541,0.0543,0.0545,0.0546,0.0547,0,-0.0806,-0.0829,-0.0865,-0.0902,-0.0909,-0.0932,-0.0946,-0.0883,-0.0865,-0.0644,-0.061,-0.0382,-0.0192,0.0101,0.0285,0.0469,0.0459,0.0535,0.0498,0.0443,0.0456,0.0444,0.0433,0.0513,0.0513,0.0514,0.0514,0,-0.0862,-0.0874,-0.0907,-0.0988,-0.103,-0.1064,-0.1071,-0.1063,-0.0932,-0.0846,-0.0616,-0.0432,-0.0077,0.0172,0.0395,0.0497,0.0499,0.0553,0.0528,0.0448,0.0423,0.0433,0.0422,0.052,0.0519,0.0519,0.0518,0.0518,-0.0907,-0.0954,-0.101,-0.1079,-0.1138,-0.1182,-0.1183,-0.1142,-0.1085,-0.0867,-0.0664,-0.0351,-0.0087,0.0263,0.043,0.059,0.0588,0.0601,0.0596,0.0592,0.0558,0.0537,0.0649,0.0649,0.0649,0.0649,0.0649,0,-0.0974,-0.1025,-0.1099,-0.1193,-0.1272,-0.1267,-0.1257,-0.1214,-0.1113,-0.0843,-0.0622,-0.0325,-0.0045,0.025,0.0517,0.0637,0.0608,0.0646,0.0586,0.0581,0.0577,0.0539,0.0627,0.0627,0.0627,0.0627,0,0,-0.1019,-0.1104,-0.114,-0.1288,-0.1347,-0.14,-0.1373,-0.1245,-0.1052,-0.0794,-0.0534,-0.0299,0.0053,0.0194,0.0366,0.0537,0.0518,0.0536,0.0544,0.045,0.0444,0.0544,0.048,0,0,0,0,0]}],[{"header":{"parameterUnit":"m.s-1","parameterCategory":2,"la1":30.2991,"la2":30.254,"lo1":-89.0895,"lo2":-89.0444,"dy":0.0017,"dx":0.0017,"nx":28,"ny":28,"refTime":"2025-06-09T21:00:00:Z","depth":"4","parameterNumber":2,"parameterNumberName":"U-component_of_CURRENTS"},"data":[0,0,0,0,0,0,0,0,0,0,0,0,0,0,0,0,0,0,0,0,0,0,0,0,0,0,0,0,0,0,0,0,0,0,0,0,0,0,0,0,0,0,0,0,0,0,0,0,0,0,0,0,0,0,0,0,0,0,-0.1527,-0.1527,0,-0.1572,-0.1573,-0.1573,-0.161,-0.161,-0.1611,-0.1612,-0.1667,-0.1668,-0.1669,0,0,0,0,0,0,0,0,0,0,0,0,0,-0.1457,-0.1457,-0.1527,-0.1527,-0.1528,-0.1572,-0.1573,-0.1573,-0.1609,-0.161,-0.1611,-0.1612,-0.1667,-0.1668,-0.1669,0,0,0,0,0,0,0,0,0,0,0,0,0,-0.149,-0.1458,-0.1526,-0.1554,-0.1557,-0.1572,-0.1573,-0.1573,-0.1609,-0.161,-0.1611,-0.1612,-0.1667,-0.1668,-0.1669,-0.1658,0,0,-0.1673,-0.1674,0,0,0,0,0,0,0,0,-0.1488,-0.1492,-0.1549,-0.1552,-0.1556,-0.1589,-0.1569,-0.1603,-0.1609,-0.1586,-0.1612,-0.1613,-0.1643,-0.1647,-0.1649,-0.1661,-0.1663,-0.1673,-0.1674,-0.1675,-0.1675,0,0,0,0,0,0,0,-0.1486,-0.1491,-0.1542,-0.155,-0.1554,-0.1559,-0.1565,-0.1575,-0.1607,-0.1588,-0.1592,-0.1601,-0.1645,-0.1647,-0.165,-0.1664,-0.1673,-0.1675,-0.1675,-0.1676,-0.1722,-0.1722,0,0,0,0,0,0,-0.1486,-0.1488,-0.154,-0.1543,-0.1527,-0.156,-0.1566,-0.1575,-0.1606,-0.1613,-0.1601,-0.1603,-0.1644,-0.1649,-0.1652,-0.1717,-0.1675,-0.1676,-0.1677,-0.1721,-0.1722,-0.1722,0,0,0,0,0,0,-0.1484,-0.149,-0.1539,-0.1519,-0.1526,-0.1561,-0.157,-0.1575,-0.1608,-0.1616,-0.1623,-0.1632,-0.1645,-0.1651,-0.1683,-0.1717,-0.1677,-0.1678,-0.1721,-0.1722,-0.1722,-0.1798,0,0,0,0,0,0,-0.1482,-0.1489,-0.1507,-0.1519,-0.1528,-0.1566,-0.1569,-0.1576,-0.1612,-0.1616,-0.1644,-0.1649,-0.1647,-0.1681,-0.1684,-0.1718,-0.1679,-0.172,-0.1721,-0.1722,-0.1795,-0.1801,-0.1806,0,0,0,0,0,-0.1479,-0.1498,-0.1507,-0.1514,-0.1547,-0.1567,-0.1572,-0.1597,-0.1613,-0.1629,-0.1648,-0.1649,-0.1688,-0.1683,-0.1686,-0.1721,-0.172,-0.1721,-0.1722,-0.1792,-0.18,-0.1806,0,0,0,0,0,0,-0.1481,-0.1504,-0.1514,-0.1541,-0.1561,-0.1575,-0.1599,-0.1613,-0.164,-0.1654,-0.1659,-0.1664,-0.1704,-0.1695,-0.1689,-0.1732,-0.1702,-0.1704,-0.1755,-0.1762,-0.1767,-0.1762,-0.168,0,0,0,0,0,-0.1487,-0.1508,-0.1527,-0.1551,-0.1565,-0.1586,-0.1604,-0.162,-0.164,-0.1655,-0.1674,-0.1689,-0.1704,-0.1721,-0.1727,-0.1756,-0.1728,-0.1776,-0.1782,-0.1787,-0.1783,-0.1778,-0.1783,-0.1726,-0.1726,-0.1726,0,0,-0.1496,-0.1512,-0.1525,-0.1554,-0.1573,-0.1601,-0.16,-0.1634,-0.1664,-0.1656,-0.1709,-0.1713,-0.1714,-0.1746,-0.1763,-0.175,-0.1785,-0.1789,-0.1794,-0.1786,-0.178,-0.1785,-0.1791,-0.1726,-0.1726,-0.1726,0,0,-0.1514,-0.1538,-0.1559,-0.1581,-0.1616,-0.1629,-0.1646,-0.1674,-0.1698,-0.1737,-0.1739,-0.1761,-0.1791,-0.1794,-0.18,-0.1838,-0.1814,-0.1846,-0.188,-0.1876,-0.1881,-0.1885,-0.1844,-0.1844,-0.1852,-0.1852,-0.1853,0,-0.1526,-0.1554,-0.1569,-0.1598,-0.1626,-0.1647,-0.168,-0.1703,-0.174,-0.1762,-0.1766,-0.1805,-0.181,-0.1842,-0.1856,-0.1854,-0.1834,-0.1861,-0.1886,-0.1889,-0.1892,-0.1848,-0.1847,-0.1856,-0.1856,-0.1855,-0.1855,0,-0.1549,-0.1589,-0.1607,-0.1649,-0.1678,-0.1712,-0.1744,-0.1779,-0.1811,-0.1829,-0.1874,-0.1874,-0.1894,-0.1903,-0.1896,-0.1923,-0.1896,-0.1894,-0.1873,-0.1903,-0.1854,-0.1852,-0.1862,-0.186,-0.1859,-0.1858,0,0,-0.1531,-0.1609,-0.1618,-0.1651,-0.1711,-0.1731,-0.1792,-0.1839,-0.1875,-0.1909,-0.1948,-0.1973,-0.1971,-0.1973,-0.1968,-0.1966,-0.1967,-0.1945,-0.1944,-0.1911,-0.1936,-0.18,-0.1783,-0.1981,-0.1982,-0.1982,-0.189,0,-0.1547,-0.1609,-0.1646,-0.1713,-0.1748,-0.1796,-0.1844,-0.1891,-0.193,-0.1969,-0.1981,-0.2008,-0.2,-0.2009,-0.2012,-0.1975,-0.1966,-0.199,-0.1905,-0.1901,-0.1783,-0.1778,-0.1983,-0.1887,-0.1887,-0.1886,-0.1886,0,-0.1549,-0.1595,-0.1663,-0.1747,-0.1767,-0.1811,-0.1888,-0.1932,-0.1991,-0.2019,-0.2053,-0.2058,-0.2063,-0.205,-0.2009,-0.2028,-0.1989,-0.1956,-0.1952,-0.1795,-0.176,-0.1852,-0.1881,-0.1881,-0.1881,-0.1882,-0.1882,0,-0.1508,-0.1602,-0.1659,-0.169,-0.1785,-0.1829,-0.1878,-0.1949,-0.1974,-0.2045,-0.2057,-0.2084,-0.2074,-0.2051,-0.1986,-0.2005,-0.1919,-0.1934,-0.1772,-0.1761,-0.1881,-0.1878,-0.1907,-0.1907,-0.1907,-0.1907,-0.1908,0,-0.1493,-0.1541,-0.1649,-0.1678,-0.1735,-0.1815,-0.1869,-0.1926,-0.1986,-0.199,-0.2069,-0.2056,-0.2076,-0.2032,-0.1988,-0.1847,-0.1918,-0.1759,-0.1728,-0.1911,-0.1913,-0.1878,-0.1875,-0.1904,-0.1905,-0.1905,-0.1906,0,-0.143,-0.1509,-0.1572,-0.1684,-0.1717,-0.1753,-0.1837,-0.1851,-0.1941,-0.1946,-0.1962,-0.202,-0.1968,-0.1952,-0.1892,-0.1811,-0.1717,-0.1657,-0.1822,-0.1804,-0.1562,-0.1565,-0.1461,-0.1456,-0.1451,-0.1447,-0.1444,0,-0.14,-0.1432,-0.1546,-0.1565,-0.1616,-0.1682,-0.17,-0.1805,-0.1808,-0.189,-0.1859,-0.1872,-0.1884,-0.1676,-0.1704,-0.1597,-0.1583,-0.1514,-0.1568,-0.1536,-0.1517,-0.1527,-0.1537,-0.1436,-0.1435,-0.1434,-0.1433,0,-0.133,-0.1382,-0.1421,-0.1461,-0.1494,-0.1518,-0.1562,-0.1554,-0.1645,-0.1744,-0.1692,-0.1664,-0.1608,-0.1571,-0.1496,-0.1431,-0.1549,-0.1465,-0.1475,-0.1525,-0.1504,-0.1493,-0.1507,-0.1416,-0.1419,-0.142,-0.1421,0,-0.1261,-0.1262,-0.1309,-0.1324,-0.1352,-0.1326,-0.1382,-0.1373,-0.1398,-0.1503,-0.1478,-0.1511,-0.158,-0.1482,-0.1412,-0.1336,-0.1324,-0.1265,-0.1286,-0.1304,-0.1297,-0.1251,-0.1039,0,0,0,0,0,-0.1186,-0.1161,-0.1162,-0.1158,-0.1172,-0.1191,-0.1259,-0.1318,-0.1418,-0.1323,-0.1398,-0.1345,-0.1279,-0.1312,-0.1197,-0.1338,-0.1325,-0.1198,-0.1269,-0.1325,-0.1344,-0.1353,0,0,0,0,0,0,-0.113,-0.1131,-0.1114,-0.1,-0.0964,-0.096,-0.1001,-0.1079,-0.1049,-0.117,-0.1145,-0.123,-0.1194,-0.1304,-0.1158,-0.116,-0.1165,-0.123,-0.1225,-0.1315,-0.1332,-0.1347,-0.1362,0,0,0,0,0]},{"header":{"parameterUnit":"m.s-1","parameterCategory":2,"la1":30.2991,"la2":30.254,"lo1":-89.0895,"lo2":-89.0444,"dy":0.0017,"dx":0.0017,"nx":28,"ny":28,"refTime":"2025-06-09T21:00:00:Z","depth":"4","parameterNumber":3,"parameterNumberName":"V-component_of_CURRENTS"},"data":[0,0,0,0,0,0,0,0,0,0,0,0,0,0,0,0,0,0,0,0,0,0,0,0,0,0,0,0,0,0,0,0,0,0,0,0,0,0,0,0,0,0,0,0,0,0,0,0,0,0,0,0,0,0,0,0,0,0,-0.0301,-0.03,0,-0.0257,-0.0257,-0.0256,-0.0233,-0.0233,-0.0233,-0.0233,-0.0169,-0.0167,-0.0165,0,0,0,0,0,0,0,0,0,0,0,0,0,-0.0343,-0.0342,-0.0301,-0.03,-0.03,-0.0257,-0.0257,-0.0256,-0.0233,-0.0233,-0.0233,-0.0233,-0.0169,-0.0167,-0.0165,0,0,0,0,0,0,0,0,0,0,0,0,0,-0.0315,-0.0342,-0.0301,-0.0283,-0.0281,-0.0257,-0.0257,-0.0256,-0.0233,-0.0233,-0.0233,-0.0233,-0.017,-0.0167,-0.0165,-0.0152,0,0,-0.0158,-0.0156,0,0,0,0,0,0,0,0,-0.0316,-0.0313,-0.0286,-0.0284,-0.0282,-0.025,-0.0248,-0.022,-0.0233,-0.0252,-0.0233,-0.0233,-0.0194,-0.0189,-0.0182,-0.0149,-0.0147,-0.0157,-0.0156,-0.0155,-0.0154,0,0,0,0,0,0,0,-0.0318,-0.0315,-0.0284,-0.0285,-0.0283,-0.0269,-0.0266,-0.0242,-0.0224,-0.025,-0.0248,-0.0243,-0.0192,-0.0185,-0.0181,-0.0146,-0.0157,-0.0155,-0.0154,-0.0153,-0.0096,-0.0096,0,0,0,0,0,0,-0.0324,-0.0317,-0.0285,-0.0283,-0.0299,-0.0269,-0.0264,-0.0261,-0.0225,-0.0219,-0.0243,-0.0242,-0.0189,-0.0184,-0.0178,-0.0144,-0.0155,-0.0152,-0.0151,-0.0096,-0.0096,-0.0096,0,0,0,0,0,0,-0.0325,-0.0322,-0.0287,-0.0298,-0.0293,-0.0268,-0.0264,-0.026,-0.0255,-0.0219,-0.0213,-0.0243,-0.0189,-0.0182,-0.0162,-0.0142,-0.0151,-0.0149,-0.0096,-0.0096,-0.0096,-0.0085,0,0,0,0,0,0,-0.0327,-0.0322,-0.0327,-0.0299,-0.0292,-0.0278,-0.0264,-0.0259,-0.0252,-0.025,-0.0217,-0.0211,-0.0188,-0.0166,-0.016,-0.0138,-0.0147,-0.0096,-0.0096,-0.0096,-0.0086,-0.0085,-0.0084,0,0,0,0,0,-0.0328,-0.0332,-0.0327,-0.0324,-0.0298,-0.0278,-0.0274,-0.0256,-0.0252,-0.0252,-0.023,-0.0212,-0.0161,-0.0164,-0.0157,-0.0134,-0.0096,-0.0096,-0.0096,-0.0086,-0.0085,-0.0084,0,0,0,0,0,0,-0.0354,-0.033,-0.0324,-0.0321,-0.0304,-0.0274,-0.0274,-0.0261,-0.0244,-0.0245,-0.0212,-0.0205,-0.0179,-0.0166,-0.017,-0.012,-0.0125,-0.0123,-0.012,-0.0119,-0.0118,-0.0117,-0.0145,0,0,0,0,0,-0.0362,-0.036,-0.0333,-0.0333,-0.0326,-0.0302,-0.0294,-0.0282,-0.026,-0.0254,-0.0228,-0.0202,-0.0172,-0.0155,-0.0133,-0.0106,-0.0086,-0.0089,-0.0088,-0.0087,-0.0083,-0.0037,-0.0031,-0.0096,-0.0096,-0.0096,0,0,-0.0374,-0.036,-0.036,-0.0339,-0.0326,-0.0311,-0.0297,-0.0288,-0.027,-0.0249,-0.0223,-0.0201,-0.0168,-0.0136,-0.0122,-0.0121,-0.0061,-0.0087,-0.0087,-0.0082,-0.0036,-0.0029,-0.0023,-0.0096,-0.0096,-0.0096,0,0,-0.039,-0.0383,-0.0383,-0.0368,-0.0349,-0.0328,-0.0327,-0.0299,-0.0283,-0.0259,-0.0233,-0.02,-0.0167,-0.0125,-0.0102,-0.0086,-0.0062,-0.0086,-0.007,-0.0026,-0.0019,-0.0014,0.0014,0.0022,-0.0079,-0.0079,-0.0079,0,-0.0406,-0.0401,-0.0381,-0.0373,-0.0363,-0.0336,-0.033,-0.0304,-0.0272,-0.0254,-0.0254,-0.0185,-0.0154,-0.0094,-0.0085,-0.0079,-0.0064,-0.0073,-0.0023,-0.0017,-0.0011,0.0016,0.0025,-0.0079,-0.0079,-0.0079,-0.0079,0,-0.0412,-0.0412,-0.0411,-0.0389,-0.0373,-0.0368,-0.0328,-0.0309,-0.0289,-0.0258,-0.0211,-0.0167,-0.0125,-0.0104,-0.0085,-0.0026,-0.0032,-0.003,-0.0021,-0.0003,0.0024,0.0033,-0.0078,-0.0078,-0.0078,-0.0079,0,0,-0.0442,-0.0421,-0.0423,-0.0425,-0.0385,-0.0379,-0.0339,-0.0299,-0.0284,-0.0234,-0.0203,-0.013,-0.011,-0.0083,-0.005,-0.0001,0.0059,0.0001,0.0003,0.0034,0.0143,0.0109,0.0116,0.0068,0.0069,0.0071,0.0144,0,-0.0456,-0.046,-0.0433,-0.0434,-0.0434,-0.0393,-0.0364,-0.0322,-0.0284,-0.0247,-0.0172,-0.014,-0.0099,-0.0089,-0.0025,0.0031,0.0083,0.0038,0.0116,0.0118,0.0091,0.0126,0.0076,0.0151,0.0153,0.0154,0.0156,0,-0.0467,-0.0472,-0.048,-0.0471,-0.0467,-0.046,-0.0424,-0.0395,-0.0318,-0.0289,-0.022,-0.0174,-0.008,-0.0067,0.0069,0.0034,0.009,0.0138,0.0142,0.0114,0.0102,0.013,0.0172,0.0171,0.017,0.0169,0.0168,0,-0.0507,-0.0504,-0.052,-0.0515,-0.0493,-0.0491,-0.0477,-0.0416,-0.0401,-0.0321,-0.0312,-0.0187,-0.015,-0.0039,0.0071,0.0067,0.0205,0.021,0.0238,0.0236,0.024,0.0233,0.0304,0.0304,0.0304,0.0304,0.0304,0,-0.0528,-0.0545,-0.0552,-0.0563,-0.0592,-0.0551,-0.0563,-0.0524,-0.0475,-0.0463,-0.0351,-0.0324,-0.0145,-0.0045,0.0066,0.018,0.0206,0.0251,0.026,0.0239,0.0232,0.0246,0.0238,0.0307,0.0306,0.0306,0.0305,0,-0.0563,-0.0563,-0.0596,-0.0605,-0.0614,-0.0639,-0.0644,-0.0648,-0.0594,-0.0574,-0.0554,-0.0422,-0.0284,-0.0109,0.0069,0.0147,0.0272,0.0302,0.0262,0.0266,0.0275,0.0267,0.0348,0.0348,0.0348,0.0347,0.0347,0,-0.0578,-0.0598,-0.0648,-0.0686,-0.0699,-0.0731,-0.0754,-0.0714,-0.071,-0.0641,-0.0634,-0.0503,-0.0396,-0.0157,0.0018,0.0244,0.0266,0.0319,0.0317,0.0282,0.0283,0.0275,0.0268,0.0346,0.0346,0.0346,0.0346,0,-0.0615,-0.0641,-0.0674,-0.0756,-0.0806,-0.0849,-0.0872,-0.0873,-0.0817,-0.0782,-0.0688,-0.0547,-0.0393,-0.0175,0.0002,0.0156,0.0286,0.0316,0.0318,0.0316,0.0281,0.028,0.0273,0.0345,0.0345,0.0345,0.0345,0,-0.0653,-0.0698,-0.0756,-0.082,-0.0892,-0.0938,-0.0941,-0.0918,-0.0898,-0.0792,-0.0772,-0.0582,-0.0458,-0.0225,-0.0069,0.0095,0.013,0.0164,0.0174,0.0177,0.0107,0.0036,0.0042,0,0,0,0,0,-0.0687,-0.0741,-0.0813,-0.0889,-0.0957,-0.0989,-0.1005,-0.0987,-0.0933,-0.0872,-0.0807,-0.0653,-0.0402,-0.0294,-0.0133,-0.0091,0.0143,0.0096,0.0183,0.0338,0.034,0.0283,0,0,0,0,0,0,-0.0718,-0.0792,-0.0822,-0.0925,-0.0979,-0.1051,-0.1057,-0.102,-0.0959,-0.0882,-0.0735,-0.0648,-0.039,-0.0488,-0.0141,-0.0094,-0.0027,0.0225,0.0227,0.0337,0.0339,0.034,0.0282,0,0,0,0,0]}]]